Погода в Николе-Барнуках

Россия / Пензенская область     53°27′12″N   46°19′09″E
темп.,
°C
ветер,
м/с
пор.,
м/с
влажн.,
%
обл.,
%
осадки,
мм/ч
давл.,
гПа
погр.,
м
17 апреля, сб
сб1700:00+10всв411865 0.0 1020240
03:00+9всв4108993 0.0 1021183
06:00+8всв510926 0.0 1021235
09:00+13всв687046 0.0 1021484
12:00+17всв78526 0.0 1020974
15:00+18в67495 0.0 10201582
18:00+15всв711610 0.1 1018510
21:00+10всв614661 0.1 1019378
18 апреля, вс
вс1800:00+8вюв367190 0.0 1019122
03:00+8всв2373100 0.1 102096
06:00+7всв367297 0.3 1019214
09:00+8всв5864100 0.6 1019387
12:00+8св2572100 1.4 1020333
15:00+9ссз2472100 1.6 1020195
18:00+9ссв3674100 0.2 1020176
21:00+8ссв3668100 0.3 1020163
19 апреля, пн
пн1900:00+7всв4874100 1.0 1021329
03:00+5всв61284100 3.7 1021529
06:00+4всв61277100 1.8 1022584
09:00+5всв71173100 2.1 1022758
12:00+5в71175100 0.3 1022830
15:00+6в61175100 0.6 1022925
18:00+5всв81381100 0.1 1023821
21:00+5в81375100 0.1 1024808
20 апреля, вт
вт2000:00+4в7127576 0.0 1025681
03:00+3вюв7148294 0.0 1026653
06:00+3вюв71384100 0.0 1026791
09:00+5вюв9127365 0.0 1027824
12:00+8вюв9126157 0.0 10261116
15:00+9вюв9125691 0.0 10251340
18:00+7вюв91560100 0.0 10241152
21:00+6вюв101760100 0.0 10231009
21 апреля, ср
ср2100:00+4юв101958100 0.0 1023872
03:00+3юв101965100 0.6 1022790
06:00+3юв112178100 1.6 1020744
09:00+2юв102087100 4.1 1021834
12:00+3юв101891100 0.0 1021776
15:00+3ююв91691100 0.0 1022776
18:00+3ююв81594100 0.0 1023605
21:00+3ююв61397100 0.1 1024493